STARLINK-1040 (44745 NORAD) Tracking and Keplerian Element Data

This shows tracking and keplerian element data for the satellite.

Feedback or suggestion? Click here.




ElementValue
Catalog44745
NameSTARLINK-1040
Epoch Orbit1056
Epoch Day17.52107811
Epoch Year2020
RAAN196.7852
Inclination53.0043
Eccentricity0.0004145
Argument of Perigee59.6905
Mean Anonmoly300.4523
Mean Motion15.76032372
Decay Rate0.00051271
L11 44745U 19074AJ 20017.52107811 .00051271 00000-0 32499-3 0 9996
L22 44745 53.0043 196.7852 0004145 59.6905 300.4523 15.76032372 10562

Live tracking and technical data element details for STARLINK-1040 (NORAD 44745). STARLINK-1040 can be tracked NOW for your location showing map with azimuth and elevation plus other details from your city location.

Track the satellite on the map from your city or location and see movement details for azimuth, elevation, latitude, longitude, range, height, and movement on the map or in text.







IsCatalogInMostPopularTable: catalog: 44745, numindb: 17
Update: records affected: 1



GetName: 44745 STARLINK-1040

Hit Count: updated at: Sat, 18 Jan 2020 18:45:38 GMT